P/2007 V1 ( Larson )

Japanese version
Home page
Updated on April 12, 2008

---------------------------------------------------------------------

* Profile

Discovery Date November 8, 2007
Magnitude 17.3 mag
Discoverer S. M. Larson (Catalina Sky Survey)

* Pictures

* Orbital Elements

The following orbital elements are taken from MPC 61437:

Epoch 2007 Dec. 6.0 TT = JDT 2454440.5
T 2007 Dec. 8.5018 TT                                   MPC
q   2.676640             (2000.0)            P               Q
n   0.0890223      Peri.   51.4501      +0.5074562      -0.8612652
a   4.967487       Node     8.1862      +0.7208442      +0.4073658
e   0.461168       Incl.   10.7893      +0.4720931      +0.3037687
P  11.1
From 148 observations 2007 Sept. 10-Dec. 16, mean residual 0".6.

* Finding Charts

* Magnitudes Graph

        m1 = 10.3 + 5 log d + 15.0 log r

---------------------------------------------------------------------

The orbital elements are published at the MPC Ephemerides and Orbital Elements.
The charts are made with StellaNavigator Ver.8 (AstroArts).
The magnitudes graphs are made with Comet for Windows.

---------------------------------------------------------------------

Copyright(C) Seiichi Yoshida (comet@aerith.net). All rights reserved.